,,Stat6,,Stat2,,Stat8,,Stat9,,Stat10,,Wind1,,Wind1,
time,status,PA1M_AVG,status,PR1M_SUM,status,RH1M_AVG,status,SR1M_AVG,status,TA1M_AVG,status,W1dAve1m,status,W1sAve1m,
2004-05-18, 00:00:01,VALID,918.973,VALID,0,VALID,84.769,VALID,0,VALID,18.8471,VALID,112,VALID,1.88826,
2004-05-18, 00:01:01,VALID,918.969,VALID,0,VALID,84.5795,VALID,0,VALID,18.8824,VALID,117,VALID,1.93197,
2004-05-18, 00:02:01,VALID,918.952,VALID,0,VALID,84.8198,VALID,0,VALID,18.8791,VALID,118,VALID,1.48304,
2004-05-18, 00:03:01,VALID,918.925,VALID,0,VALID,85.1924,VALID,0,VALID,18.7924,VALID,120,VALID,1.9408,
2004-05-18, 00:04:01,VALID,918.892,VALID,0,VALID,85.0767,VALID,0,VALID,18.7403,VALID,118,VALID,2.06305,
2004-05-18, 00:05:01,VALID,918.87,VALID,0,VALID,84.7219,VALID,-0.0169808,VALID,18.7696,VALID,120,VALID,1.91642,
2004-05-18, 00:06:01,VALID,918.856,VALID,0,VALID,84.9381,VALID,-0.0169808,VALID,18.7917,VALID,123,VALID,1.6747,
2004-05-18, 00:07:01,VALID,918.833,VALID,0,VALID,85.2636,VALID,-0.0509425,VALID,18.7175,VALID,125,VALID,1.68322,
2004-05-18, 00:08:01,VALID,918.814,VALID,0,VALID,85.6337,VALID,-0.0509425,VALID,18.6338,VALID,128,VALID,1.55164,
2004-05-18, 00:09:01,VALID,918.792,VALID,0,VALID,85.9579,VALID,-0.0509425,VALID,18.5369,VALID,127,VALID,1.35483,
2004-05-18, 00:10:01,VALID,918.791,VALID,0,VALID,86.4869,VALID,-0.0339617,VALID,18.4302,VALID,109,VALID,0.916903,
2004-05-18, 00:11:01,VALID,918.791,VALID,0,VALID,87.1494,VALID,-0.0339617,VALID,18.3075,VALID,109,VALID,1.01905,
2004-05-18, 00:12:01,VALID,918.778,VALID,0,VALID,87.9785,VALID,-0.0339617,VALID,18.1722,VALID,115,VALID,1.07965,
2004-05-18, 00:13:01,VALID,918.768,VALID,0,VALID,88.5584,VALID,-0.0169808,VALID,18.0493,VALID,118,VALID,1.29742,
2004-05-18, 00:14:01,VALID,918.759,VALID,0,VALID,88.8585,VALID,-0.0509425,VALID,17.9753,VALID,133,VALID,1.57603,
2004-05-18, 00:15:00,VALID,918.739,VALID,0,VALID,88.6219,VALID,-0.0679233,VALID,17.9691,VALID,129,VALID,1.69398,
2004-05-18, 00:16:00,VALID,918.726,VALID,0,VALID,87.7471,VALID,-0.0509425,VALID,18.0853,VALID,119,VALID,1.52009,
2004-05-18, 00:17:00,VALID,918.714,VALID,0,VALID,86.8124,VALID,-0.0509425,VALID,18.2144,VALID,116,VALID,1.51545,
2004-05-18, 00:18:00,VALID,918.725,VALID,0,VALID,86.1932,VALID,-0.0169808,VALID,18.3795,VALID,109,VALID,1.19635,
2004-05-18, 00:19:00,VALID,918.731,VALID,0,VALID,85.8282,VALID,-0.0169808,VALID,18.4436,VALID,110,VALID,0.841332,
2004-05-18, 00:20:00,VALID,918.739,VALID,0,VALID,85.7812,VALID,-0.0509425,VALID,18.4696,VALID,130,VALID,0.636541,
2004-05-18, 00:21:00,VALID,918.746,VALID,0,VALID,86.3114,VALID,-0.0169808,VALID,18.3889,VALID,130,VALID,1.00127,
2004-05-18, 00:22:00,VALID,918.75,VALID,0,VALID,86.7361,VALID,0,VALID,18.3278,VALID,121,VALID,1.087,
2004-05-18, 00:23:00,VALID,918.755,VALID,0,VALID,86.4221,VALID,-0.0169808,VALID,18.2886,VALID,116,VALID,0.49379,
2004-05-18, 00:24:00,VALID,918.765,VALID,0,VALID,86.534,VALID,-0.0679233,VALID,18.2012,VALID,117,VALID,0.338796,
2004-05-18, 00:25:00,VALID,918.763,VALID,0,VALID,87.2715,VALID,-0.0169808,VALID,18.1178,VALID,240,VALID,0.51048,
2004-05-18, 00:26:00,VALID,918.754,VALID,0,VALID,87.5474,VALID,-0.0169808,VALID,18.0818,VALID,258,VALID,0.402344,
2004-05-18, 00:27:00,VALID,918.736,VALID,0,VALID,87.6148,VALID,0,VALID,18.0949,VALID,257,VALID,0.115885,
2004-05-18, 00:28:00,VALID,918.717,VALID,0,VALID,87.5843,VALID,-0.0169808,VALID,18.1044,VALID,257,VALID,0,
2004-05-18, 00:29:00,VALID,918.704,VALID,0,VALID,86.9167,VALID,-0.0849042,VALID,18.0431,VALID,350,VALID,0.339208,
2004-05-18, 00:30:00,VALID,918.704,VALID,0,VALID,87.6428,VALID,-0.0169808,VALID,17.9207,VALID,6,VALID,0.190044,
2004-05-18, 00:31:00,VALID,918.688,VALID,0,VALID,88.524,VALID,-0.0679233,VALID,17.8176,VALID,6,VALID,0,
2004-05-18, 00:32:00,VALID,918.692,VALID,0,VALID,89.2832,VALID,-0.0339617,VALID,17.7404,VALID,6,VALID,0,
2004-05-18, 00:33:00,VALID,918.679,VALID,0,VALID,89.4803,VALID,-0.0169808,VALID,17.6986,VALID,6,VALID,0.177083,
2004-05-18, 00:34:00,VALID,918.662,VALID,0,VALID,88.9131,VALID,0.0679233,VALID,17.6364,VALID,13,VALID,0.390816,
2004-05-18, 00:35:00,VALID,918.688,VALID,0,VALID,89.4052,VALID,0.0339617,VALID,17.4746,VALID,43,VALID,0.59566,
2004-05-18, 00:36:00,VALID,918.667,VALID,0,VALID,90.8231,VALID,0.0509425,VALID,17.3329,VALID,57,VALID,0.874645,
2004-05-18, 00:37:00,VALID,918.661,VALID,0,VALID,92.0515,VALID,0.0339617,VALID,17.2167,VALID,65,VALID,1.18007,
2004-05-18, 00:38:00,VALID,918.652,VALID,0,VALID,92.3516,VALID,0.0509425,VALID,17.2066,VALID,81,VALID,1.4702,
2004-05-18, 00:39:00,VALID,918.644,VALID,0,VALID,91.5377,VALID,0.0509425,VALID,17.3393,VALID,77,VALID,1.50076,
2004-05-18, 00:40:00,VALID,918.635,VALID,0,VALID,91.0596,VALID,0.0339617,VALID,17.4361,VALID,79,VALID,1.38844,
2004-05-18, 00:41:00,VALID,918.624,VALID,0,VALID,90.4238,VALID,0.0339617,VALID,17.5394,VALID,88,VALID,1.41726,
2004-05-18, 00:42:00,VALID,918.615,VALID,0,VALID,89.2984,VALID,0.0679233,VALID,17.6975,VALID,91,VALID,1.6236,
2004-05-18, 00:43:00,VALID,918.606,VALID,0,VALID,88.009,VALID,0.0339617,VALID,17.8978,VALID,83,VALID,1.43047,
2004-05-18, 00:44:00,VALID,918.6,VALID,0,VALID,87.4838,VALID,0.0509425,VALID,18.02,VALID,77,VALID,1.53606,
2004-05-18, 00:45:00,VALID,918.605,VALID,0,VALID,87.1977,VALID,0.0679233,VALID,18.0818,VALID,77,VALID,1.42932,
2004-05-18, 00:46:00,VALID,918.612,VALID,0,VALID,87.5881,VALID,0.0169808,VALID,18.0426,VALID,75,VALID,1.07999,
2004-05-18, 00:47:00,VALID,918.614,VALID,0,VALID,88.538,VALID,0.0509425,VALID,17.9172,VALID,73,VALID,1.33612,
2004-05-18, 00:48:00,VALID,918.608,VALID,0,VALID,88.9424,VALID,0.0339617,VALID,17.84,VALID,78,VALID,1.50667,
2004-05-18, 00:49:00,VALID,918.586,VALID,0,VALID,88.6982,VALID,0,VALID,17.8275,VALID,84,VALID,1.57118,
2004-05-18, 00:50:00,VALID,918.578,VALID,0,VALID,88.3473,VALID,-0.0509425,VALID,17.8637,VALID,91,VALID,1.58757,
2004-05-18, 00:51:00,VALID,918.575,VALID,0,VALID,87.4508,VALID,0,VALID,17.9409,VALID,101,VALID,1.38863,
2004-05-18, 00:52:00,VALID,918.568,VALID,0,VALID,87.0146,VALID,-0.0169808,VALID,18.0375,VALID,117,VALID,1.41523,
2004-05-18, 00:53:00,VALID,918.587,VALID,0,VALID,86.8722,VALID,-0.0509425,VALID,18.0959,VALID,119,VALID,1.3748,
2004-05-18, 00:54:00,VALID,918.599,VALID,0,VALID,87.1596,VALID,-0.0509425,VALID,18.0606,VALID,113,VALID,1.22257,
2004-05-18, 00:55:00,VALID,918.613,VALID,0,VALID,88.0726,VALID,-0.0509425,VALID,17.9442,VALID,114,VALID,1.31027,
2004-05-18, 00:56:00,VALID,918.611,VALID,0,VALID,88.6283,VALID,-0.0339617,VALID,17.8826,VALID,120,VALID,1.49479,
2004-05-18, 00:57:00,VALID,918.608,VALID,0,VALID,88.8279,VALID,-0.0339617,VALID,17.8704,VALID,130,VALID,1.55716,
2004-05-18, 00:58:00,VALID,918.605,VALID,0,VALID,88.9729,VALID,-0.0509425,VALID,17.7888,VALID,122,VALID,1.75972,
2004-05-18, 00:59:00,VALID,918.575,VALID,0,VALID,88.3435,VALID,-0.0169808,VALID,17.7927,VALID,119,VALID,2.01023,
2004-05-18, 01:00:00,VALID,918.551,VALID,0,VALID,87.7153,VALID,-0.0509425,VALID,17.8828,VALID,117,VALID,1.59282,
2004-05-18, 01:01:00,VALID,918.525,VALID,0,VALID,87.3592,VALID,-0.101885,VALID,17.9573,VALID,116,VALID,1.64974,
2004-05-18, 01:02:00,VALID,918.494,VALID,0,VALID,87.1176,VALID,-0.0339617,VALID,17.9767,VALID,117,VALID,1.31973,
2004-05-18, 01:03:00,VALID,918.466,VALID,0,VALID,86.9345,VALID,-0.0339617,VALID,17.9965,VALID,120,VALID,1.54501,
2004-05-18, 01:04:00,VALID,918.434,VALID,0,VALID,86.712,VALID,-0.0339617,VALID,18.0242,VALID,123,VALID,1.52782,
2004-05-18, 01:05:00,VALID,918.4,VALID,0,VALID,86.6115,VALID,0.0509425,VALID,18.0364,VALID,128,VALID,1.62742,
2004-05-18, 01:06:00,VALID,918.371,VALID,0,VALID,86.6789,VALID,0.101885,VALID,18.0304,VALID,127,VALID,1.3899,
2004-05-18, 01:07:00,VALID,918.339,VALID,0,VALID,86.5619,VALID,0.0169808,VALID,18.0011,VALID,126,VALID,1.46697,
2004-05-18, 01:08:00,VALID,918.315,VALID,0,VALID,86.3801,VALID,0.0849042,VALID,17.9878,VALID,125,VALID,1.46912,
2004-05-18, 01:09:00,VALID,918.296,VALID,0,VALID,86.2173,VALID,0,VALID,17.9981,VALID,121,VALID,1.41602,
2004-05-18, 01:10:00,VALID,918.285,VALID,0,VALID,85.9872,VALID,0.0679233,VALID,18.0009,VALID,128,VALID,1.25994,
2004-05-18, 01:11:00,VALID,918.291,VALID,0,VALID,85.9083,VALID,0.0849042,VALID,18.0173,VALID,129,VALID,1.32209,
2004-05-18, 01:12:00,VALID,918.287,VALID,0,VALID,85.8715,VALID,0.0509425,VALID,18.0265,VALID,128,VALID,1.22283,
2004-05-18, 01:13:00,VALID,918.282,VALID,0,VALID,86.1754,VALID,0.0509425,VALID,17.9914,VALID,126,VALID,1.33685,
2004-05-18, 01:14:00,VALID,918.281,VALID,0,VALID,86.4666,VALID,0.0849042,VALID,17.8909,VALID,124,VALID,1.22266,
2004-05-18, 01:15:00,VALID,918.272,VALID,0,VALID,86.787,VALID,0.0679233,VALID,17.8492,VALID,116,VALID,0.993521,
2004-05-18, 01:16:00,VALID,918.289,VALID,0,VALID,87.2613,VALID,0.0169808,VALID,17.7819,VALID,128,VALID,1.17152,
2004-05-18, 01:17:00,VALID,918.281,VALID,0,VALID,87.564,VALID,-0.0169808,VALID,17.7154,VALID,128,VALID,1.24702,
2004-05-18, 01:18:00,VALID,918.276,VALID,0,VALID,87.5284,VALID,-0.0849042,VALID,17.6827,VALID,124,VALID,1.52288,
2004-05-18, 01:19:00,VALID,918.249,VALID,0,VALID,87.5919,VALID,-0.0169808,VALID,17.6892,VALID,121,VALID,1.89825,
2004-05-18, 01:20:00,VALID,918.237,VALID,0,VALID,87.6733,VALID,0.0509425,VALID,17.7176,VALID,120,VALID,1.88247,
2004-05-18, 01:21:00,VALID,918.216,VALID,0,VALID,87.6708,VALID,0.0339617,VALID,17.7685,VALID,116,VALID,2.05888,
2004-05-18, 01:22:00,VALID,918.209,VALID,0,VALID,87.7,VALID,0.0849042,VALID,17.8266,VALID,118,VALID,1.8923,
2004-05-18, 01:23:00,VALID,918.188,VALID,0,VALID,87.6949,VALID,0.0509425,VALID,17.843,VALID,119,VALID,1.91574,
2004-05-18, 01:24:00,VALID,918.19,VALID,0,VALID,87.7242,VALID,0.0339617,VALID,17.8333,VALID,120,VALID,1.97843,
2004-05-18, 01:25:00,VALID,918.183,VALID,0,VALID,87.7522,VALID,0.0339617,VALID,17.8075,VALID,122,VALID,1.85652,
2004-05-18, 01:26:00,VALID,918.179,VALID,0,VALID,87.9683,VALID,0.0679233,VALID,17.7558,VALID,122,VALID,1.58518,
2004-05-18, 01:27:00,VALID,918.156,VALID,0,VALID,88.3892,VALID,0.0509425,VALID,17.6687,VALID,124,VALID,1.44457,
2004-05-18, 01:28:00,VALID,918.147,VALID,0,VALID,88.669,VALID,0.0509425,VALID,17.6042,VALID,119,VALID,1.73679,
2004-05-18, 01:29:00,VALID,918.128,VALID,0,VALID,88.5342,VALID,0.0339617,VALID,17.6111,VALID,117,VALID,1.79371,
2004-05-18, 01:30:00,VALID,918.103,VALID,0,VALID,88.2811,VALID,0.0169808,VALID,17.6201,VALID,115,VALID,1.75273,
2004-05-18, 01:31:00,VALID,918.085,VALID,0,VALID,87.9098,VALID,0.0679233,VALID,17.6622,VALID,115,VALID,1.76581,
2004-05-18, 01:32:00,VALID,918.072,VALID,0,VALID,87.2969,VALID,0.0509425,VALID,17.7397,VALID,117,VALID,1.73674,
2004-05-18, 01:33:00,VALID,918.058,VALID,0,VALID,86.8862,VALID,0.0679233,VALID,17.8172,VALID,120,VALID,1.64672,
2004-05-18, 01:34:00,VALID,918.039,VALID,0,VALID,86.7234,VALID,0.0679233,VALID,17.8656,VALID,126,VALID,1.43986,
2004-05-18, 01:35:00,VALID,918.034,VALID,0,VALID,86.7807,VALID,0.0339617,VALID,17.8529,VALID,131,VALID,1.4897,
2004-05-18, 01:36:00,VALID,918.019,VALID,0,VALID,86.8633,VALID,0.0169808,VALID,17.8271,VALID,128,VALID,1.43387,
2004-05-18, 01:37:00,VALID,918.006,VALID,0,VALID,86.8099,VALID,0.0339617,VALID,17.801,VALID,126,VALID,1.55774,
2004-05-18, 01:38:00,VALID,917.986,VALID,0,VALID,86.6382,VALID,0.0339617,VALID,17.8335,VALID,123,VALID,1.54648,
2004-05-18, 01:39:00,VALID,917.971,VALID,0,VALID,86.3229,VALID,0,VALID,17.8397,VALID,115,VALID,1.58379,
2004-05-18, 01:40:00,VALID,917.967,VALID,0,VALID,85.9808,VALID,0.0509425,VALID,17.8884,VALID,123,VALID,1.59624,
2004-05-18, 01:41:00,VALID,917.963,VALID,0,VALID,85.5358,VALID,0.0509425,VALID,17.9626,VALID,119,VALID,1.63906,
2004-05-18, 01:42:00,VALID,917.945,VALID,0,VALID,85.4544,VALID,0.0509425,VALID,17.9919,VALID,116,VALID,1.47438,
2004-05-18, 01:43:00,VALID,917.938,VALID,0,VALID,85.4531,VALID,0.0679233,VALID,17.9977,VALID,118,VALID,1.81305,
2004-05-18, 01:44:00,VALID,917.924,VALID,0,VALID,85.242,VALID,0.0339617,VALID,18.0302,VALID,124,VALID,1.79669,
2004-05-18, 01:45:00,VALID,917.912,VALID,0,VALID,85.3018,VALID,0.0169808,VALID,18.0403,VALID,125,VALID,1.6418,
2004-05-18, 01:46:00,VALID,917.898,VALID,0,VALID,85.5968,VALID,0.0169808,VALID,17.9758,VALID,126,VALID,1.5666,
2004-05-18, 01:47:00,VALID,917.893,VALID,0,VALID,85.8689,VALID,0.0849042,VALID,17.9043,VALID,122,VALID,1.49609,
2004-05-18, 01:48:00,VALID,917.873,VALID,0,VALID,86.0024,VALID,0.0339617,VALID,17.8561,VALID,117,VALID,1.33222,
2004-05-18, 01:49:00,VALID,917.851,VALID,0,VALID,86.066,VALID,-0.0339617,VALID,17.8213,VALID,131,VALID,1.02083,
2004-05-18, 01:50:00,VALID,917.84,VALID,0,VALID,86.3966,VALID,-0.0509425,VALID,17.757,VALID,131,VALID,1.57013,
2004-05-18, 01:51:00,VALID,917.817,VALID,0,VALID,86.3229,VALID,-0.0169808,VALID,17.7376,VALID,128,VALID,1.77754,
2004-05-18, 01:52:00,VALID,917.788,VALID,0,VALID,86.1639,VALID,-0.0169808,VALID,17.7662,VALID,126,VALID,1.57919,
2004-05-18, 01:53:00,VALID,917.774,VALID,0,VALID,86.3458,VALID,-0.0169808,VALID,17.7798,VALID,124,VALID,1.59691,
2004-05-18, 01:54:00,VALID,917.773,VALID,0,VALID,86.4538,VALID,-0.0169808,VALID,17.7699,VALID,128,VALID,1.69283,
2004-05-18, 01:55:00,VALID,917.758,VALID,0,VALID,86.3152,VALID,-0.0339617,VALID,17.7789,VALID,131,VALID,1.74558,
2004-05-18, 01:56:00,VALID,917.746,VALID,0,VALID,86.1474,VALID,-0.0339617,VALID,17.8211,VALID,131,VALID,1.60061,
2004-05-18, 01:57:00,VALID,917.735,VALID,0,VALID,86.1321,VALID,-0.0509425,VALID,17.8187,VALID,131,VALID,1.66134,
2004-05-18, 01:58:00,VALID,917.728,VALID,0,VALID,86.1245,VALID,-0.0169808,VALID,17.7793,VALID,126,VALID,1.62976,
2004-05-18, 01:59:00,VALID,917.705,VALID,0,VALID,86.1995,VALID,-0.0339617,VALID,17.7567,VALID,126,VALID,1.61406,
2004-05-18, 02:00:00,VALID,917.676,VALID,0,VALID,86.1601,VALID,-0.0339617,VALID,17.7537,VALID,127,VALID,1.56377,
2004-05-18, 02:01:00,VALID,917.648,VALID,0,VALID,85.8155,VALID,-0.0169808,VALID,17.7768,VALID,128,VALID,1.74079,
2004-05-18, 02:02:00,VALID,917.633,VALID,0,VALID,85.5408,VALID,-0.0169808,VALID,17.8374,VALID,129,VALID,1.51462,
2004-05-18, 02:03:00,VALID,917.617,VALID,0,VALID,85.331,VALID,-0.0169808,VALID,17.8598,VALID,129,VALID,1.494,
2004-05-18, 02:04:00,VALID,917.598,VALID,0,VALID,85.0996,VALID,0,VALID,17.9024,VALID,125,VALID,1.70484,
2004-05-18, 02:05:00,VALID,917.593,VALID,0,VALID,85.0093,VALID,-0.0679233,VALID,17.9317,VALID,121,VALID,1.45549,
2004-05-18, 02:06:00,VALID,917.578,VALID,0,VALID,84.9305,VALID,-0.0509425,VALID,17.9186,VALID,129,VALID,1.55771,
2004-05-18, 02:07:00,VALID,917.561,VALID,0,VALID,84.9495,VALID,-0.0339617,VALID,17.9089,VALID,128,VALID,1.57563,
2004-05-18, 02:08:00,VALID,917.557,VALID,0,VALID,85.0843,VALID,-0.0339617,VALID,17.8699,VALID,133,VALID,1.58008,
2004-05-18, 02:09:00,VALID,917.548,VALID,0,VALID,85.317,VALID,-0.0339617,VALID,17.8282,VALID,129,VALID,1.51863,
2004-05-18, 02:10:00,VALID,917.563,VALID,0,VALID,85.4378,VALID,-0.0679233,VALID,17.7793,VALID,125,VALID,1.52548,
2004-05-18, 02:11:00,VALID,917.573,VALID,0,VALID,85.4595,VALID,-0.0509425,VALID,17.7604,VALID,121,VALID,1.4723,
2004-05-18, 02:12:00,VALID,917.58,VALID,0,VALID,85.3628,VALID,-0.0339617,VALID,17.7602,VALID,120,VALID,1.32395,
2004-05-18, 02:13:00,VALID,917.583,VALID,0,VALID,85.3437,VALID,-0.0679233,VALID,17.7699,VALID,121,VALID,1.34097,
2004-05-18, 02:14:00,VALID,917.585,VALID,0,VALID,85.5014,VALID,-0.0339617,VALID,17.7634,VALID,120,VALID,1.49981,
2004-05-18, 02:15:00,VALID,917.577,VALID,0,VALID,86.2618,VALID,0,VALID,17.7602,VALID,120,VALID,1.56977,
2004-05-18, 02:16:00,VALID,917.561,VALID,0,VALID,86.5759,VALID,-0.0169808,VALID,17.7215,VALID,108,VALID,1.60052,
2004-05-18, 02:17:00,VALID,917.526,VALID,0,VALID,86.548,VALID,-0.0339617,VALID,17.7187,VALID,115,VALID,1.35379,
2004-05-18, 02:18:00,VALID,917.508,VALID,0,VALID,86.9447,VALID,-0.0679233,VALID,17.712,VALID,121,VALID,1.44961,
2004-05-18, 02:19:00,VALID,917.502,VALID,0,VALID,87.5729,VALID,-0.0509425,VALID,17.6703,VALID,121,VALID,1.38935,
2004-05-18, 02:20:00,VALID,917.499,VALID,0,VALID,88.683,VALID,-0.0339617,VALID,17.5635,VALID,129,VALID,1.43241,
2004-05-18, 02:21:00,VALID,917.494,VALID,0,VALID,89.9711,VALID,-0.0509425,VALID,17.4088,VALID,124,VALID,1.30636,
2004-05-18, 02:22:00,VALID,917.499,VALID,0,VALID,90.8676,VALID,-0.0169808,VALID,17.2408,VALID,116,VALID,1.10263,
2004-05-18, 02:23:00,VALID,917.512,VALID,0,VALID,91.6878,VALID,-0.0339617,VALID,17.0926,VALID,106,VALID,1.22311,
2004-05-18, 02:24:00,VALID,917.521,VALID,0,VALID,92.2753,VALID,-0.0169808,VALID,16.9601,VALID,98,VALID,0.934896,
2004-05-18, 02:25:00,VALID,917.525,VALID,0,VALID,92.733,VALID,-0.0509425,VALID,16.8729,VALID,87,VALID,1.00727,
2004-05-18, 02:26:00,VALID,917.513,VALID,0,VALID,92.6962,VALID,-0.0509425,VALID,16.8407,VALID,88,VALID,1.07592,
2004-05-18, 02:27:00,VALID,917.481,VALID,0,VALID,92.0794,VALID,-0.0169808,VALID,16.8729,VALID,98,VALID,1.28888,
2004-05-18, 02:28:00,VALID,917.448,VALID,0,VALID,90.832,VALID,-0.0169808,VALID,16.9568,VALID,90,VALID,1.06623,
2004-05-18, 02:29:00,VALID,917.401,VALID,0,VALID,89.9152,VALID,-0.0339617,VALID,17.0958,VALID,101,VALID,1.17671,
2004-05-18, 02:30:00,VALID,917.378,VALID,0,VALID,88.9627,VALID,-0.0339617,VALID,17.2051,VALID,110,VALID,1.27507,
2004-05-18, 02:31:00,VALID,917.354,VALID,0,VALID,87.2868,VALID,-0.0509425,VALID,17.3411,VALID,91,VALID,1.12519,
2004-05-18, 02:32:00,VALID,917.348,VALID,0,VALID,86.4322,VALID,-0.0169808,VALID,17.5377,VALID,77,VALID,1.07184,
2004-05-18, 02:33:00,VALID,917.346,VALID,0,VALID,86.0088,VALID,-0.0169808,VALID,17.6507,VALID,103,VALID,0.914971,
2004-05-18, 02:34:00,VALID,917.352,VALID,0,VALID,85.9719,VALID,-0.0169808,VALID,17.7028,VALID,106,VALID,1.04978,
2004-05-18, 02:35:00,VALID,917.361,VALID,0,VALID,85.4073,VALID,-0.0169808,VALID,17.7247,VALID,108,VALID,1.42115,
2004-05-18, 02:36:00,VALID,917.356,VALID,0,VALID,84.6978,VALID,-0.0169808,VALID,17.8247,VALID,101,VALID,1.30903,
2004-05-18, 02:37:00,VALID,917.352,VALID,0,VALID,84.4218,VALID,0,VALID,17.9147,VALID,106,VALID,1.33836,
2004-05-18, 02:38:00,VALID,917.337,VALID,0,VALID,84.0658,VALID,-0.0339617,VALID,17.9767,VALID,93,VALID,1.36204,
2004-05-18, 02:39:00,VALID,917.338,VALID,0,VALID,84.1497,VALID,0,VALID,18.0216,VALID,95,VALID,1.04821,
2004-05-18, 02:40:00,VALID,917.317,VALID,0,VALID,84.521,VALID,0,VALID,17.9928,VALID,84,VALID,1.02934,
2004-05-18, 02:41:00,VALID,917.3,VALID,0,VALID,84.9381,VALID,-0.0169808,VALID,17.9121,VALID,99,VALID,1.48384,
2004-05-18, 02:42:00,VALID,917.284,VALID,0,VALID,85.1288,VALID,-0.0169808,VALID,17.8575,VALID,95,VALID,1.41495,
2004-05-18, 02:43:00,VALID,917.296,VALID,0,VALID,85.1632,VALID,-0.0509425,VALID,17.8409,VALID,91,VALID,1.24943,
2004-05-18, 02:44:00,VALID,917.285,VALID,0,VALID,85.3387,VALID,-0.0339617,VALID,17.8379,VALID,82,VALID,0.94077,
2004-05-18, 02:45:00,VALID,917.266,VALID,0,VALID,85.8117,VALID,-0.0169808,VALID,17.7733,VALID,85,VALID,1.44727,
2004-05-18, 02:46:00,VALID,917.262,VALID,0,VALID,86.1754,VALID,-0.0339617,VALID,17.6896,VALID,95,VALID,1.50604,
2004-05-18, 02:47:00,VALID,917.263,VALID,0,VALID,86.3038,VALID,-0.0509425,VALID,17.6408,VALID,101,VALID,1.2702,
2004-05-18, 02:48:00,VALID,917.232,VALID,0,VALID,86.3776,VALID,-0.0169808,VALID,17.618,VALID,93,VALID,1.0543,
2004-05-18, 02:49:00,VALID,917.231,VALID,0,VALID,86.5022,VALID,-0.0679233,VALID,17.6059,VALID,94,VALID,1.36771,
2004-05-18, 02:50:00,VALID,917.21,VALID,0,VALID,86.6827,VALID,-0.0339617,VALID,17.5573,VALID,101,VALID,1.26563,
2004-05-18, 02:51:00,VALID,917.196,VALID,0,VALID,86.7959,VALID,-0.0679233,VALID,17.5287,VALID,111,VALID,1.22042,
2004-05-18, 02:52:00,VALID,917.197,VALID,0,VALID,86.8773,VALID,-0.0169808,VALID,17.4762,VALID,106,VALID,1.3185,
2004-05-18, 02:53:00,VALID,917.185,VALID,0,VALID,86.7476,VALID,-0.0509425,VALID,17.4764,VALID,114,VALID,1.0282,
2004-05-18, 02:54:00,VALID,917.181,VALID,0,VALID,86.8188,VALID,-0.0169808,VALID,17.4566,VALID,104,VALID,1.20027,
2004-05-18, 02:55:00,VALID,917.169,VALID,0,VALID,87.0083,VALID,-0.0509425,VALID,17.4441,VALID,87,VALID,1.14045,
2004-05-18, 02:56:00,VALID,917.172,VALID,0,VALID,87.1278,VALID,-0.0169808,VALID,17.4347,VALID,90,VALID,1.11047,
2004-05-18, 02:57:00,VALID,917.171,VALID,0,VALID,87.3058,VALID,-0.0849042,VALID,17.4381,VALID,103,VALID,1.38139,
2004-05-18, 02:58:00,VALID,917.159,VALID,0,VALID,87.4266,VALID,-0.0679233,VALID,17.4183,VALID,105,VALID,1.01358,
2004-05-18, 02:59:00,VALID,917.162,VALID,0,VALID,87.6517,VALID,-0.0849042,VALID,17.3923,VALID,98,VALID,1.19885,
2004-05-18, 03:00:00,VALID,917.161,VALID,0,VALID,87.5144,VALID,-0.0509425,VALID,17.3832,VALID,97,VALID,1.54306,
2004-05-18, 03:01:00,VALID,917.14,VALID,0,VALID,87.1418,VALID,-0.0339617,VALID,17.4284,VALID,105,VALID,1.70567,
2004-05-18, 03:02:00,VALID,917.145,VALID,0,VALID,86.7883,VALID,-0.0509425,VALID,17.499,VALID,111,VALID,1.82552,
2004-05-18, 03:03:00,VALID,917.126,VALID,0,VALID,86.5874,VALID,-0.0849042,VALID,17.5543,VALID,111,VALID,1.8756,
2004-05-18, 03:04:00,VALID,917.131,VALID,0,VALID,86.3763,VALID,-0.0339617,VALID,17.5855,VALID,104,VALID,1.80878,
2004-05-18, 03:05:00,VALID,917.132,VALID,0,VALID,86.2313,VALID,0,VALID,17.6207,VALID,103,VALID,1.55354,
2004-05-18, 03:06:00,VALID,917.152,VALID,0,VALID,86.0864,VALID,0.0509425,VALID,17.6302,VALID,94,VALID,1.48775,
2004-05-18, 03:07:00,VALID,917.154,VALID,0,VALID,86.0558,VALID,0.0679233,VALID,17.653,VALID,88,VALID,1.22024,
2004-05-18, 03:08:00,VALID,917.16,VALID,0,VALID,86.239,VALID,0.0339617,VALID,17.6334,VALID,83,VALID,1.28232,
2004-05-18, 03:09:00,VALID,917.158,VALID,0,VALID,86.4462,VALID,0.0169808,VALID,17.6016,VALID,82,VALID,1.19036,
2004-05-18, 03:10:00,VALID,917.172,VALID,0,VALID,86.5632,VALID,0.0339617,VALID,17.5661,VALID,93,VALID,1.354,
2004-05-18, 03:11:00,VALID,917.17,VALID,0,VALID,86.4271,VALID,0.0509425,VALID,17.5693,VALID,93,VALID,1.44473,
2004-05-18, 03:12:00,VALID,917.16,VALID,0,VALID,86.2097,VALID,0.0509425,VALID,17.6044,VALID,96,VALID,1.33012,
2004-05-18, 03:13:00,VALID,917.17,VALID,0,VALID,86.0215,VALID,0,VALID,17.6466,VALID,103,VALID,1.48047,
2004-05-18, 03:14:00,VALID,917.147,VALID,0,VALID,85.8549,VALID,0.0169808,VALID,17.6821,VALID,102,VALID,1.49822,
2004-05-18, 03:15:00,VALID,917.143,VALID,0,VALID,85.7519,VALID,0.0169808,VALID,17.7176,VALID,101,VALID,1.33715,
2004-05-18, 03:16:00,VALID,917.139,VALID,0,VALID,85.7468,VALID,0,VALID,17.7307,VALID,109,VALID,1.37587,
2004-05-18, 03:17:00,VALID,917.143,VALID,0,VALID,85.7392,VALID,0.0509425,VALID,17.7339,VALID,113,VALID,1.59304,
2004-05-18, 03:18:00,VALID,917.153,VALID,0,VALID,85.6655,VALID,0.0169808,VALID,17.7436,VALID,109,VALID,1.49982,
2004-05-18, 03:19:00,VALID,917.15,VALID,0,VALID,85.654,VALID,0.0169808,VALID,17.7432,VALID,110,VALID,1.48438,
2004-05-18, 03:20:00,VALID,917.16,VALID,0,VALID,85.7011,VALID,0.0169808,VALID,17.7173,VALID,112,VALID,1.56481,
2004-05-18, 03:21:00,VALID,917.159,VALID,0,VALID,85.7863,VALID,0.0679233,VALID,17.6982,VALID,107,VALID,1.58041,
2004-05-18, 03:22:00,VALID,917.151,VALID,0,VALID,85.8804,VALID,0.0679233,VALID,17.6756,VALID,105,VALID,1.56836,
2004-05-18, 03:23:00,VALID,917.151,VALID,0,VALID,85.9592,VALID,0.0339617,VALID,17.6463,VALID,103,VALID,1.41425,
2004-05-18, 03:24:00,VALID,917.154,VALID,0,VALID,85.7214,VALID,0.0509425,VALID,17.627,VALID,99,VALID,1.37991,
2004-05-18, 03:25:00,VALID,917.148,VALID,0,VALID,85.6171,VALID,0.0679233,VALID,17.6429,VALID,87,VALID,1.26024,
2004-05-18, 03:26:00,VALID,917.153,VALID,0,VALID,85.5192,VALID,0.0169808,VALID,17.6595,VALID,89,VALID,1.21145,
2004-05-18, 03:27:00,VALID,917.157,VALID,0,VALID,85.2433,VALID,0.0339617,VALID,17.6592,VALID,93,VALID,1.22763,
2004-05-18, 03:28:00,VALID,917.166,VALID,0,VALID,84.975,VALID,0.0679233,VALID,17.7182,VALID,89,VALID,1.32598,
2004-05-18, 03:29:00,VALID,917.168,VALID,0,VALID,84.9508,VALID,0.0169808,VALID,17.7434,VALID,85,VALID,1.10429,
2004-05-18, 03:30:00,VALID,917.172,VALID,0,VALID,85.2306,VALID,0.0339617,VALID,17.7016,VALID,86,VALID,1.2686,
2004-05-18, 03:31:00,VALID,917.176,VALID,0,VALID,85.4556,VALID,0,VALID,17.6466,VALID,88,VALID,1.24926,